DateTimeUTC,F1_A11,F1_S11,BsB_S11,BsG_S11,BsR_S11,BbsB_S11,BbsG_S11,BbsR_S11,BaB_A11,BaG_A11,BaR_A11,Tu_S11,T_S11,Uu_S11,U_S11,P_S11,T1_A11
2021-12-24T12:00:00Z,00000200,21000000,,,,,,,0000.17,0000.39,0000.06,19.2,26.5,,00.0,0662.1,31.1
2021-12-24T12:01:00Z,00000200,21000000,,,,,,,-000.04,-000.10,0000.41,19.2,26.5,,00.0,0662.1,31.1
2021-12-24T12:02:00Z,00000200,21000000,,,,,,,-000.04,0000.57,-000.02,19.2,26.5,,00.0,0662.1,31.1
2021-12-24T12:03:00Z,00000200,61000000,,,,,,,0002.66,0002.05,0002.03,19.2,26.5,,00.0,0662.1,31.1
2021-12-24T12:04:00Z,00000200,41000000,0000.68,0000.26,-000.07,0000.02,0000.06,0000.22,0000.16,0000.36,-000.21,19.5,26.4,,00.0,0663.0,31.1
2021-12-24T12:05:00Z,00000200,01000000,0000.48,0000.45,-000.00,0000.26,0000.13,0000.06,0000.15,0000.03,0000.36,19.6,26.4,,00.0,0663.0,31.1
2021-12-24T12:06:00Z,00000200,01000000,0000.00,0000.13,0000.24,0000.58,0000.07,0000.15,0000.32,0000.10,-000.05,19.7,26.4,,00.0,0663.0,31.1
2021-12-24T12:07:00Z,00000200,01000000,0000.48,0000.21,0000.29,0000.37,0000.01,0000.60,-000.01,0000.21,0000.34,19.7,26.4,,00.0,0663.0,31.1
2021-12-24T12:08:00Z,00000200,01000000,0001.00,0000.59,0000.18,0000.09,0000.43,0000.41,-000.25,-000.01,0000.01,19.6,26.3,,00.0,0663.0,31.1
2021-12-24T12:09:00Z,00000200,01000000,0000.87,0000.10,0000.35,0000.12,0000.11,0000.16,0000.28,0000.18,-000.24,19.5,26.3,,00.0,0663.0,31.1
2021-12-24T12:10:00Z,00000200,01000000,0000.78,0000.16,-000.20,0000.39,-000.08,-000.19,0000.04,-000.19,-000.27,19.4,26.2,,00.0,0663.0,31.0
2021-12-24T12:11:00Z,00000200,01010000,0000.88,0000.32,0000.36,0000.30,0000.24,0000.12,-000.08,-000.20,0000.24,19.4,26.2,,00.0,0662.9,31.0
2021-12-24T12:12:00Z,00000200,01000000,0000.62,0000.34,-000.14,0000.24,0000.26,0000.08,-000.25,-000.01,-000.12,19.4,26.2,,00.0,0662.9,31.0
2021-12-24T12:13:00Z,00000200,01000000,-000.31,0000.27,0000.03,-000.13,0000.22,-000.03,-000.09,-000.52,0000.07,19.4,26.2,,00.0,0662.9,31.1
2021-12-24T12:14:00Z,00000200,01000000,-000.14,0000.29,0000.07,0000.23,0000.44,0000.14,-000.25,0000.34,0000.14,19.4,26.1,,00.0,0662.9,31.1
2021-12-24T12:15:00Z,00000200,01000000,0000.02,0000.40,0000.31,0000.18,0000.16,0000.28,-000.01,-000.20,-000.74,19.4,26.2,,00.0,0662.9,31.1
2021-12-24T12:16:00Z,00000200,01000000,0000.53,0000.43,0000.13,-000.31,0000.29,0000.22,-000.27,0000.03,0000.05,19.5,26.2,,00.0,0663.0,31.1
2021-12-24T12:17:00Z,00000200,01000000,-000.15,0000.28,0000.45,0000.73,0000.32,0000.17,0000.10,0000.08,0000.35,19.5,26.2,,00.0,0663.0,31.1
2021-12-24T12:18:00Z,00000200,01000000,-000.18,-000.02,0000.11,0000.57,0000.11,0000.23,0000.33,-000.09,-000.12,19.6,26.2,,00.0,0663.0,31.1
2021-12-24T12:19:00Z,00000200,01000000,-000.27,0000.32,0000.09,0000.02,-000.06,0000.51,-000.50,-000.55,-000.03,19.6,26.2,,00.0,0663.0,31.1
2021-12-24T12:20:00Z,00000200,01000000,0000.68,0000.20,0000.41,0000.14,0000.38,0000.10,0000.23,0000.42,0000.34,19.6,26.2,,00.0,0663.0,31.1
2021-12-24T12:21:00Z,00000200,01000000,0000.11,0000.29,0000.21,0000.43,0000.41,0000.20,0000.12,0000.41,0000.02,19.6,26.3,,00.0,0662.9,31.1
2021-12-24T12:22:00Z,00000200,01000000,0001.04,0000.44,0000.02,0000.53,0000.44,0000.35,0000.58,0000.04,0000.10,19.6,26.3,,00.0,0662.9,31.1
2021-12-24T12:23:00Z,00000200,01000000,0000.27,0000.21,-000.16,0000.64,0000.31,-000.13,-000.12,0000.36,0000.39,19.5,26.2,,00.0,0662.9,31.1
2021-12-24T12:24:00Z,00000200,01000000,0000.86,0000.43,0000.06,0000.02,0000.27,0000.07,0000.11,0000.07,-000.00,19.4,26.2,,00.0,0662.8,31.0
2021-12-24T12:25:00Z,00000200,01000000,0000.63,0000.23,0000.11,0000.01,0000.18,-000.11,0000.46,-000.00,-000.03,19.3,26.1,,00.0,0662.8,31.0
2021-12-24T12:26:00Z,00000200,01000000,-000.05,0000.76,0000.05,-000.22,0000.04,0000.44,0000.12,0000.24,0000.15,19.3,26.1,,00.0,0662.9,31.0
2021-12-24T12:27:00Z,00000200,01000000,0000.66,0000.31,-000.03,0000.66,0000.02,0000.12,-000.01,0000.09,0000.27,19.2,26.1,,00.0,0662.9,31.0
2021-12-24T12:28:00Z,00000200,01000000,0000.94,0000.29,0000.45,0000.08,0000.46,-000.00,-000.10,-000.04,-000.23,19.2,26.0,,00.0,0662.9,31.0
2021-12-24T12:29:00Z,00000200,01000000,0000.53,0000.11,0000.23,-000.20,0000.18,0000.10,0000.37,0000.08,0000.00,19.3,26.0,,00.0,0662.9,31.1
2021-12-24T12:30:00Z,00000200,01000000,0000.39,0000.44,0000.02,-000.26,-000.02,-000.17,-000.37,-000.07,0000.18,19.3,26.1,,00.0,0662.9,31.1
2021-12-24T12:31:00Z,00000200,01000000,0000.61,0000.52,0000.27,-000.49,0000.35,0000.17,0000.33,0000.40,-000.21,19.3,26.1,,00.0,0662.8,31.1
2021-12-24T12:32:00Z,00000200,01000000,0000.38,0000.50,0000.35,-000.30,0000.06,0000.20,0000.20,0000.14,0000.25,19.4,26.1,,00.0,0662.8,31.1
2021-12-24T12:33:00Z,00000200,01000000,0000.24,0000.49,0000.22,0000.49,0000.29,0000.20,-000.18,-000.08,0000.03,19.4,26.1,,00.0,0662.8,31.1
2021-12-24T12:34:00Z,00000200,01000000,-000.18,0000.39,0000.20,-000.22,0000.53,0000.21,0000.37,0000.32,0000.20,19.5,26.1,,00.0,0662.8,31.1
2021-12-24T12:35:00Z,00000200,01000000,0000.53,0000.48,0000.22,-000.37,0000.29,0000.25,0000.45,0000.38,0000.05,19.5,26.2,,00.0,0662.8,31.1
2021-12-24T12:36:00Z,00000200,01000000,0001.62,0000.88,0000.36,-000.14,0000.42,-000.10,0004.15,0004.01,0003.63,19.6,26.2,,00.0,0662.8,31.2
2021-12-24T12:37:00Z,00000200,01000000,0002.77,0002.64,0001.38,0000.34,0000.70,0000.47,0027.78,0025.71,0020.81,19.6,26.2,,00.0,0662.8,31.1
2021-12-24T12:38:00Z,00000200,01000000,0005.00,0004.03,0002.10,0001.57,0000.87,0000.86,0049.96,0046.58,0038.15,19.6,26.2,,00.0,0662.8,31.1
2021-12-24T12:39:00Z,00040200,01000000,0005.79,0004.06,0002.39,0000.78,0001.00,0001.01,0053.08,0049.55,0040.47,19.5,26.2,,00.0,0662.8,31.1
2021-12-24T12:40:00Z,00040200,01000000,0004.70,0003.82,0002.23,0000.99,0000.76,0000.75,0050.43,0046.99,0038.70,19.5,26.2,,00.0,0662.8,31.1
2021-12-24T12:41:00Z,00040200,01000000,0004.78,0004.22,0002.22,0001.04,0001.14,0000.83,0053.02,0049.68,0040.38,19.4,26.1,,00.0,0662.7,31.1
2021-12-24T12:42:00Z,00040200,01000000,0005.46,0003.64,0002.26,0001.10,0000.77,0000.94,0052.42,0048.46,0039.86,19.4,26.1,,00.0,0662.8,31.1
2021-12-24T12:43:00Z,00040200,01000000,0002.02,0001.05,0000.85,0000.72,0000.40,0000.83,0014.54,0014.19,0011.48,19.4,26.1,,00.0,0662.8,31.1
2021-12-24T12:44:00Z,00040200,01000000,0000.50,0000.40,0000.15,0000.16,0000.42,0000.05,0000.96,0000.69,0000.69,19.4,26.1,,00.0,0662.8,31.1
2021-12-24T12:45:00Z,00040200,01000000,0000.57,0000.35,0000.35,0000.13,0000.29,0000.21,0000.96,0000.89,0000.67,19.5,26.1,,00.0,0662.8,31.1
2021-12-24T12:46:00Z,00040200,01000000,0003.08,0001.62,0001.16,0000.02,0000.57,0000.26,0021.35,0019.91,0016.23,19.5,26.1,,00.0,0662.9,31.1
2021-12-24T12:47:00Z,00040200,01000000,0002.18,0001.53,0000.92,0000.17,0000.46,0000.42,0022.47,0021.06,0017.73,19.5,26.2,,00.0,0662.8,31.1
2021-12-24T12:48:00Z,00040200,01000000,0000.62,0000.57,0000.19,0000.54,0000.35,0000.41,0002.81,0002.75,0001.74,19.6,26.2,,00.0,0662.8,31.1
2021-12-24T12:49:00Z,00040200,01000000,-000.01,0000.72,0000.09,0000.64,0000.09,0000.22,0000.30,0000.40,0000.59,19.6,26.2,,00.0,0662.8,31.1
2021-12-24T12:50:00Z,00040200,01000000,0000.87,0000.59,0000.49,-000.15,0000.34,0000.36,0003.75,0003.27,0002.61,19.6,26.2,,00.0,0662.9,31.1
2021-12-24T12:51:00Z,00040200,01000000,0003.62,0002.37,0001.76,0000.53,0000.70,0000.29,0022.99,0021.95,0017.97,19.7,26.2,,00.0,0662.9,31.1
2021-12-24T12:52:00Z,00040200,01000000,0003.80,0003.31,0001.91,0000.79,0000.99,0000.59,0041.76,0038.85,0032.02,19.7,26.3,,00.0,0662.9,31.1
2021-12-24T12:53:00Z,00040200,01000000,0001.89,0001.29,0001.02,0000.35,0000.52,0000.50,0016.70,0015.73,0013.32,19.7,26.3,,00.0,0662.9,31.1
2021-12-24T12:54:00Z,00040200,01000000,0000.45,0000.35,0000.30,0000.61,-000.13,0000.31,0000.20,0000.01,0000.07,19.6,26.3,,00.0,0662.9,31.1
2021-12-24T12:55:00Z,00040200,01000000,0000.40,0000.33,-000.40,0000.07,-000.09,-000.09,0000.01,0000.09,-000.09,19.6,26.2,,00.0,0662.9,31.1
2021-12-24T12:56:00Z,00040200,01000000,0000.54,0000.20,0000.45,-000.10,-000.00,0000.51,0000.07,0000.27,0000.43,19.5,26.2,,00.0,0662.8,31.1
2021-12-24T12:57:00Z,00040200,41000000,,,,,,,0001.90,0001.49,0001.45,19.5,26.2,,00.0,0662.8,31.1
2021-12-24T12:58:00Z,00040200,61000000,,,,,,,-000.69,-000.37,-000.47,19.1,26.3,,00.0,0661.9,31.1
2021-12-24T12:59:00Z,00040200,21000000,,,,,,,0000.02,-000.40,-000.33,19.1,26.4,,00.0,0661.9,31.1
